Portsmouth Coastal Half Marathon
3 Feb 2019

     

Page 1 of 15 (726 items)
FavPosRace NoNameTimeCategoryCat PosGenderGen PosTeamPace
1753Ben Toye01:14:1018-291Male1Gosport Road Runners 10.6 m/hr
2524Paul Mitchinson01:19:0330-391Male2Victory AC 9.9 m/hr
378Nathan Blunden01:20:5830-392Male3Headington Road Runners 9.7 m/hr
4709George Sutherland01:22:2918-292Male4Denmead Striders 9.5 m/hr
5172Jack Collins01:22:5130-393Male5 9.5 m/hr
6578Ross Partridge01:22:5330-394Male6Portsmouth Triathletes 9.5 m/hr
7318Dale Grimshaw01:23:1140-491Male7Trawden AC 9.4 m/hr
8284Mark Gardiner01:23:1840-492Male8 9.4 m/hr
932Booey Bailey01:24:3540-493Male9 9.3 m/hr
10393Mark Jeffrey01:24:3840-494Male10 9.3 m/hr
11600Philip Powell01:24:5418-293Male11 9.3 m/hr
12448Alex Linehan01:25:2040-495Male12 9.2 m/hr
13420Gary Kurth01:25:5540-496Male13TeamSpy 9.1 m/hr
14379Ian Hunter01:25:5540-497Male14Alchester Running Club 9.1 m/hr
15184Chris Cornwell01:26:2930-395Male15Denmead Striders 9.1 m/hr
16439Paul Lenaghan01:26:4840-498Male16 9.1 m/hr
17202Greg Davis01:27:1850-591Male17Newmarket joggers 9.0 m/hr
18481Laurence Manning01:27:2430-396Male18 9.0 m/hr
19517Julian Middlewick01:28:0440-499Male19 8.9 m/hr
20544Rory Murphy01:28:0550-592Male20 8.9 m/hr
21579Harnish Patel01:28:3430-397Male21Royal Navy 8.9 m/hr
22394David Jennings01:28:3940-4910Male22Stubbington Green Runners 8.9 m/hr
23549Mike Newnham01:28:4330-398Male23 8.9 m/hr
24431James Le Poidevin01:28:5218-294Male24 8.8 m/hr
25758Henry Trutch01:29:0718-295Male25 8.8 m/hr
2647Alan Barnes01:29:1140-4911Male26 8.8 m/hr
27815Esther Wiley01:29:2540-491Female1Totton RC 8.8 m/hr
28429Garett Le Noury01:29:2650-593Male27Teadragons 8.8 m/hr
29281Jason Frizzell01:29:4640-4912Male28Portsmouth Triathletes 8.8 m/hr
30311Tom Gray01:29:5530-399Male29 8.7 m/hr
31535Joseph Morrison01:29:5618-296Male30Southampton University Triathlon Team 8.7 m/hr
32267Russell Finn01:30:1940-4913Male31 8.7 m/hr
33514Fernando Merino Hernandez01:30:3330-3910Male32Portsmouth Triathletes 8.7 m/hr
34728Joe Teal01:30:3718-297Male33 8.7 m/hr
35499Colin Mc Donnell01:30:5840-4914Male34 8.6 m/hr
36227Alan Dowden01:31:1140-4915Male35 8.6 m/hr
37801Paul Welch01:31:2840-4916Male36Denmead Striders 8.6 m/hr
38456Sonny Locke01:31:2918-298Male37 8.6 m/hr
39702Vick Stockdale-Powell01:31:3318-299Male38Portsmouth Triathletes 8.6 m/hr
40673Daniel Shawyer01:31:4330-3911Male39Denmead Striders 8.6 m/hr
41677Gianni Shipp01:31:4830-3912Male40Circolo Run Club 8.6 m/hr
42125Mark Burton01:32:0050-594Male41 8.5 m/hr
4313Louis Alexander01:32:0918-2910Male42 8.5 m/hr
44433Chris Lee01:32:1230-3913Male43 8.5 m/hr
45395Lloyd Jenvey01:32:3340-4917Male44 8.5 m/hr
46832Andy Winfield01:32:5118-2911Male45 8.5 m/hr
4793David Brawn01:33:1330-3914Male46Portsmouth Joggers 8.4 m/hr
48221Michael Dobson01:33:3630-3915Male47 8.4 m/hr
49430Ian Le Poidevin01:33:5930-3916Male48 8.4 m/hr
50160Josh Clemets01:34:0818-2912Male49 8.3 m/hr
Page 1 of 15 (726 items)